TimeEST,TemperatureF,Dew PointF,Humidity,Sea Level PressureIn,VisibilityMPH,Wind Direction,Wind SpeedMPH,Gust SpeedMPH,PrecipitationIn,Events,Conditions,WindDirDegrees,DateUTC
12:15 AM,55.4,55.4,100,30.11,7.0,Calm,Calm,-,N/A,,Clear,0,2013-02-20 05:15:00
12:35 AM,53.6,53.6,100,30.11,10.0,Calm,Calm,-,N/A,,Clear,0,2013-02-20 05:35:00
12:55 AM,53.6,53.6,100,30.12,7.0,Calm,Calm,-,N/A,,Clear,0,2013-02-20 05:55:00
1:15 AM,53.6,53.6,100,30.12,5.0,Calm,Calm,-,N/A,,Clear,0,2013-02-20 06:15:00
1:35 AM,51.8,51.8,100,30.12,7.0,Calm,Calm,-,N/A,,Clear,0,2013-02-20 06:35:00
1:55 AM,53.6,53.6,100,30.12,7.0,Calm,Calm,-,N/A,,Clear,0,2013-02-20 06:55:00
2:15 AM,51.8,51.8,100,30.11,7.0,Calm,Calm,-,N/A,,Clear,0,2013-02-20 07:15:00
2:35 AM,53.6,53.6,100,30.11,5.0,Calm,Calm,-,N/A,,Scattered Clouds,0,2013-02-20 07:35:00
2:55 AM,55.4,55.4,100,30.11,7.0,Calm,Calm,-,N/A,,Mostly Cloudy,0,2013-02-20 07:55:00
3:15 AM,55.4,55.4,100,30.11,5.0,Calm,Calm,-,N/A,,Mostly Cloudy,0,2013-02-20 08:15:00
3:35 AM,53.6,53.6,100,30.10,5.0,SSE,3.5,-,N/A,,Mostly Cloudy,150,2013-02-20 08:35:00
3:55 AM,53.6,53.6,100,30.10,5.0,South,3.5,-,N/A,,Mostly Cloudy,170,2013-02-20 08:55:00
4:15 AM,53.6,53.6,100,30.10,7.0,Calm,Calm,-,N/A,,Overcast,0,2013-02-20 09:15:00
4:35 AM,55.4,55.4,100,30.10,7.0,Calm,Calm,-,N/A,,Overcast,0,2013-02-20 09:35:00
4:55 AM,55.4,55.4,100,30.10,7.0,Calm,Calm,-,N/A,,Mostly Cloudy,0,2013-02-20 09:55:00
5:15 AM,55.4,55.4,100,30.10,7.0,Calm,Calm,-,N/A,,Overcast,0,2013-02-20 10:15:00
5:35 AM,55.4,55.4,100,30.11,7.0,Calm,Calm,-,N/A,,Overcast,0,2013-02-20 10:35:00
5:55 AM,55.4,55.4,100,30.12,7.0,Calm,Calm,-,N/A,,Overcast,0,2013-02-20 10:55:00
6:15 AM,57.2,57.2,100,30.13,10.0,Calm,Calm,-,N/A,,Overcast,0,2013-02-20 11:15:00
6:35 AM,57.2,57.2,100,30.13,7.0,Calm,Calm,-,N/A,,Overcast,0,2013-02-20 11:35:00
7:15 AM,59.0,59.0,100,30.15,5.0,North,6.9,-,N/A,,Overcast,10,2013-02-20 12:15:00
7:35 AM,59.0,59.0,100,30.15,4.0,NNE,6.9,-,N/A,,Overcast,30,2013-02-20 12:35:00
7:55 AM,59.0,59.0,100,30.15,5.0,NNE,8.1,-,N/A,,Overcast,20,2013-02-20 12:55:00
8:15 AM,59.0,59.0,100,30.16,10.0,NNE,9.2,-,N/A,,Overcast,20,2013-02-20 13:15:00
9:15 AM,60.8,55.4,82,30.15,10.0,ENE,4.6,-,N/A,,Overcast,60,2013-02-20 14:15:00
9:35 AM,62.6,55.4,77,30.16,10.0,East,5.8,-,N/A,,Overcast,80,2013-02-20 14:35:00
10:15 AM,64.4,53.6,68,30.16,10.0,East,6.9,-,N/A,,Overcast,90,2013-02-20 15:15:00
10:35 AM,66.2,50.0,56,30.16,10.0,ENE,8.1,-,N/A,,Mostly Cloudy,70,2013-02-20 15:35:00
10:55 AM,68.0,50.0,52,30.16,10.0,ENE,8.1,-,N/A,,Mostly Cloudy,60,2013-02-20 15:55:00
11:15 AM,68.0,50.0,52,30.15,10.0,NE,6.9,-,N/A,,Scattered Clouds,50,2013-02-20 16:15:00
11:35 AM,69.8,50.0,49,30.15,10.0,NE,6.9,-,N/A,,Clear,50,2013-02-20 16:35:00
11:55 AM,71.6,51.8,50,30.13,10.0,North,4.6,-,N/A,,Clear,10,2013-02-20 16:55:00
12:15 PM,73.4,51.8,47,30.11,10.0,ESE,5.8,-,N/A,,Clear,120,2013-02-20 17:15:00
12:35 PM,73.4,51.8,47,30.10,10.0,Calm,Calm,-,N/A,,Clear,0,2013-02-20 17:35:00
12:55 PM,73.4,51.8,47,30.09,10.0,Calm,Calm,-,N/A,,Clear,0,2013-02-20 17:55:00
1:15 PM,75.2,53.6,47,30.08,10.0,Calm,Calm,-,N/A,,Clear,0,2013-02-20 18:15:00
1:35 PM,75.2,53.6,47,30.07,10.0,WNW,3.5,-,N/A,,Clear,290,2013-02-20 18:35:00
1:55 PM,75.2,53.6,47,30.07,10.0,West,3.5,-,N/A,,Clear,270,2013-02-20 18:55:00
2:15 PM,75.2,53.6,47,30.06,10.0,South,4.6,-,N/A,,Scattered Clouds,190,2013-02-20 19:15:00
2:35 PM,77.0,53.6,44,30.06,10.0,SW,3.5,-,N/A,,Scattered Clouds,230,2013-02-20 19:35:00
2:55 PM,78.8,53.6,42,30.05,10.0,Calm,Calm,-,N/A,,Mostly Cloudy,0,2013-02-20 19:55:00
3:15 PM,77.0,53.6,44,30.05,10.0,Calm,Calm,-,N/A,,Mostly Cloudy,0,2013-02-20 20:15:00
3:35 PM,75.2,53.6,47,30.04,10.0,SSW,3.5,-,N/A,,Mostly Cloudy,210,2013-02-20 20:35:00
3:55 PM,77.0,53.6,44,30.05,10.0,WSW,6.9,-,N/A,,Overcast,240,2013-02-20 20:55:00
4:15 PM,75.2,53.6,47,30.05,10.0,Calm,Calm,-,N/A,,Overcast,0,2013-02-20 21:15:00
4:35 PM,75.2,53.6,47,30.07,10.0,West,9.2,-,N/A,,Overcast,280,2013-02-20 21:35:00
4:55 PM,73.4,55.4,53,30.07,10.0,WNW,6.9,-,N/A,,Overcast,290,2013-02-20 21:55:00
5:15 PM,71.6,53.6,53,30.08,10.0,WNW,12.7,18.4,N/A,,Overcast,300,2013-02-20 22:15:00
5:35 PM,71.6,53.6,53,30.08,10.0,WNW,10.4,-,N/A,,Mostly Cloudy,300,2013-02-20 22:35:00
5:55 PM,69.8,53.6,56,30.08,10.0,WNW,10.4,-,N/A,,Scattered Clouds,290,2013-02-20 22:55:00
6:15 PM,69.8,53.6,56,30.08,10.0,WNW,8.1,-,N/A,,Clear,300,2013-02-20 23:15:00
6:35 PM,68.0,53.6,60,30.08,10.0,WNW,4.6,-,N/A,,Clear,290,2013-02-20 23:35:00
6:55 PM,66.2,53.6,64,30.09,10.0,NW,4.6,-,N/A,,Clear,310,2013-02-20 23:55:00
7:15 PM,64.4,53.6,68,30.10,10.0,NW,4.6,-,N/A,,Clear,310,2013-02-21 00:15:00
7:35 PM,64.4,53.6,68,30.10,10.0,North,3.5,-,N/A,,Clear,10,2013-02-21 00:35:00
7:55 PM,62.6,53.6,72,30.11,10.0,Calm,Calm,-,N/A,,Clear,0,2013-02-21 00:55:00
8:15 PM,62.6,55.4,77,30.12,10.0,Calm,Calm,-,N/A,,Clear,0,2013-02-21 01:15:00
8:35 PM,60.8,55.4,82,30.11,10.0,Calm,Calm,-,N/A,,Clear,0,2013-02-21 01:35:00
8:55 PM,60.8,55.4,82,30.12,10.0,NNE,3.5,-,N/A,,Scattered Clouds,20,2013-02-21 01:55:00
9:15 PM,59.0,55.4,88,30.13,10.0,Calm,Calm,-,N/A,,Mostly Cloudy,0,2013-02-21 02:15:00
9:35 PM,60.8,55.4,82,30.13,10.0,NNW,3.5,-,N/A,,Mostly Cloudy,330,2013-02-21 02:35:00
9:55 PM,59.0,53.6,82,30.13,10.0,North,3.5,-,N/A,,Scattered Clouds,10,2013-02-21 02:55:00
10:15 PM,59.0,53.6,82,30.13,10.0,North,4.6,-,N/A,,Clear,10,2013-02-21 03:15:00
10:35 PM,57.2,53.6,88,30.13,10.0,NE,3.5,-,N/A,,Clear,50,2013-02-21 03:35:00
10:55 PM,57.2,53.6,88,30.12,10.0,ENE,4.6,-,N/A,,Clear,60,2013-02-21 03:55:00
11:15 PM,57.2,53.6,88,30.11,10.0,ENE,3.5,-,N/A,,Clear,60,2013-02-21 04:15:00
11:55 PM,55.4,53.6,94,30.11,10.0,Calm,Calm,-,N/A,,Clear,0,2013-02-21 04:55:00